www.pogodaiklimat.ru

Погода и климат >> Архив погоды >> ОАЭ >> Аль-Мактум аэропорт


ПОГОДА в Аль-Мактум аэропорту

  • Прогноз погоды в Аль-Мактум аэропорту
  • Монитор погоды в Аль-Мактум аэропорту

АРХИВ ПОГОДЫ в Аль-Мактум аэропорту

Время (UTC), дата Ветер
(напр.,м/с)
 
Видим.   Явления Облачность Т
(С)
Тd
(С)
f
(%)
Тe
(С)
Тes
(С)
Комфортность P
(гПа)
Po
(гПа)
Тmin
(С)
Tmax
(С)
R
(мм)
R24
(мм)
S
(см)
15 9.07 СЗ 6 8000 м ясно +36.2 +25.1 53 +50 +50 опасность
перегрева
995.1 991.7 +29.5 +41.0
21 9.07 ЮЗ 4 8000 м ясно +31.0 +22.5 61 +41 +41 опасность
перегрева
995.5 992.1 +29.5 +41.0
03 10.07 З 5 8000 м ясно +29.9 +19.2 53 +36 +37 очень
душно
995.9 992.5 +27.6 +41.0
09 10.07 СЗ 10 8000 м ясно +42.2 +14.2 19 +42 +43 опасность
перегрева
995.6 992.2 +27.6 +42.4
15 10.07 СЗ 5 8000 м ясно +36.7 +20.6 39 +43 +43 опасность
перегрева
995.7 992.3 +27.6 +42.9
21 10.07 Ю 2 10 км ясно +30.0 +16.3 44 +33 +33 душно 995.8 992.4 +27.6 +42.9
03 11.07 ЮВ 3 10 км ясно +27.8 +12.8 40 +29 +31 жарко 997.4 993.9 +25.9 +42.9
09 11.07 СЗ 8 10 км ясно +41.5 +10.6 16 +40 +45 очень
жарко
997.4 994.0 +25.9 +42.9
15 11.07 СЗ 4 10 км ясно +37.3 +19.9 36 +43 +43 опасность
перегрева
996.8 993.4 +25.9 +42.1
21 11.07 ЮЗ 2 10 км ясно +28.9 +18.5 53 +34 +34 очень
душно
997.1 993.6 +25.9 +42.1
03 12.07 В 1 10 км ясно +29.7 +10.8 31 +30 +32 жарко 998.0 994.6 +26.9 +42.1
09 12.07 СЗ 8 10 км ясно +38.8 +22.3 39 +47 +51 опасность
перегрева
997.6 994.2 +26.9 +42.1
15 12.07 СЗ 5 10 км ясно +35.4 +24.3 53 +48 +48 опасность
перегрева
996.9 993.5 +26.9 +39.9
21 12.07 ЮЗ 2 10 км ясно +31.6 +25.0 68 +45 +45 опасность
перегрева
997.4 994.0 +26.9 +39.9
03 13.07 ЮВ 2 7000 м ясно +29.4 +22.0 64 +38 +40 очень
душно
998.6 995.2 +28.4 +39.9
09 13.07 Ю 2 8000 м ясно +40.2 +19.2 30 +45 +68 опасность
перегрева
998.2 994.7 +28.4 +41.5
15 13.07 С 6 10 км ясно +36.2 +26.9 59 +54 +54 опасность
перегрева
996.9 993.5 +28.4 +45.6
21 13.07 СВ 3 10 км ясно +33.2 +27.9 74 +54 +54 опасность
перегрева
998.5 995.1 +28.4 +45.6
03 14.07 Ю 5 6000 м ясно +32.2 +25.7 69 +47 +49 опасность
перегрева
999.4 996.0 +29.4 +45.6
09 14.07 ЮЗ 2 7000 м ясно +43.3 +16.6 21 +45 +66 опасность
перегрева
998.7 995.3 +30.4 +45.6
15 14.07 СЗ 6 6000 м ясно +36.3 +23.2 47 +46 +46 опасность
перегрева
997.6 994.2 +30.4 +43.9
21 14.07 З 3 6000 м ясно +32.2 +27.2 75 +51 +51 опасность
перегрева
998.3 994.9 +30.4 +43.9
03 15.07 ЮЗ 4 7000 м ясно +30.4 +23.4 66 +41 +42 опасность
перегрева
998.8 995.4 +29.6 +43.9
15 15.07 СЗ 7 10 км ясно +35.2 +24.1 53 +47 +47 опасность
перегрева
996.9 993.5 +29.6 +39.6
21 15.07 З 4 10 км ясно +31.2 +23.4 63 +42 +42 опасность
перегрева
996.7 993.3 +29.6 +39.6
03 16.07 ЮЗ 4 10 км ясно +29.8 +19.0 52 +35 +36 очень
душно
997.3 993.9 +28.4 +39.6
09 16.07 СЗ 6 10 км ясно +40.0 +18.9 30 +44 +52 опасность
перегрева
996.9 993.5 +28.4 +40.7

 

Местоположение метеостанции Аль-Мактум аэропорт (ОАЭ): широта 24.90 долгота 55.16 высота над уровнем моря 19 м.

В архиве по умолчанию представлена погода в Аль-Мактум аэропорту за последнюю неделю. Архивные данные за месяц целиком и за предыдущие месяцы, начиная с января 2011 года, Вы можете получить, выбрав интересующий диапазон дат из раскрывающегося списка и нажав кнопку "Ввод!".


*Определитесь, кто Вы:
робот инопланетянин человек

Внимание! Время в таблицах - всемирное. Для получения местного времени необходимо прибавить поправку, которая равна 4 ч.

Смотрите также архив погоды в соседних городах и на ближайших метеорологических станциях:

Погода в Дубае (ОАЭ) (43 км)
Погода в Шардже (ОАЭ) (60 км)
Погода в Абу-Даби (ОАЭ) (73 км)
Погода в Эль-Айне (ОАЭ) (83 км)
Погода в Абу-Даби Батин аэропорту (ОАЭ) (88 км)
Погода в Эль-Бурайми (Оман) (97 км)
Погода на Острове Абу-Муса (Иран) (109 км)
Погода в Рай-эль-Хайма аэропорту (ОАЭ) (111 км)
Погода в Фуджейре (ОАЭ) (120 км)
Погода на Острове Сирри (Иран) (128 км)

Пояснения к столбцам:

Ветер - указаны скорость ветра в м/с - средняя за 10 мин, порывы в срок и между сроками (в фигурных скобках) и направление, откуда дует ветер: С - северный, СВ - северо-восточный, В - восточный, ЮВ - юго-восточный, Ю - южный, ЮЗ - юго-западный, З - западный, СЗ - северо-западный.
Видимость - горизонтальная дальность видимости в метрах или километрах. При видимости от 1 до 10 км при отсутствии осадков обычно наблюдается дымка, при ухудшении видимости до 1 км и менее - туман. В сухую погоду видимость может ухудшаться дымом, пылью или мглою.
Явления - указаны атмосферные явления, наблюдавшиеся в срок или в последний час перед сроком; фигурными скобками обозначены явления, наблюдавшиеся между сроками (за 1-3 часа до срока); квадратными скобками обозначены град или гололедные отложения с указанием их диаметра в мм.
Облачность - указаны через наклонную черту общая и нижняя облачность в баллах и высота нижней границы облаков в метрах; квадратными скобками обозначены формы облаков: Ci - перистые, Cs - перисто-слоистые, Cc - перисто-кучевые, Ac - высококучевые, As - высокослоистые, Sc - слоисто-кучевые, Ns - слоисто-дождевые, Cu - кучевые, Cb - кучево-дождевые. Подробнее классификацию облаков см. в Атласе облаков (PDF).
T - Температура воздуха - температура, измеренная на высоте 2 м над землей.
Td - Температура точки росы - температура, при понижении до которой содержащийся в воздухе водяной пар достигнет насыщения.
f - Относительная влажность воздуха - влажноcть воздуха, измеренная на высоте 2 м над землей.
Te - Эффективная температура - температура, которую ощущает одетый по сезону человек в тени. Характеристика душности погоды. При расчете учитывается влияние влажности воздуха и скорости ветра на теплоощущения человека.
Tes - Эффективная температура на солнце - температура, которую ощущает человек, с поправкой на солнечный нагрев. Характеристика знойности погоды. Зависит от высоты солнца над горизонтом, облачности и скорости ветра. Ночью, в пасмурную погоду, а также при ветре 12 м/с и более поправка равна нулю.
P - Атмосферное давление - приведенное к уровню моря атмосферное давление.
Po - Атмосферное давление - измеренное на уровне метеостанции атмосферное давление.
Tmin - Минимальная температура - минимум температуры воздуха на высоте 2 м над землей.
Tmax - Максимальная температура - максимум температуры воздуха на высоте 2 м над землей.
R - Количество осадков - Количество выпавших осадков за период времени, мм. При наведении курсора мыши на число - период времени, за который выпало указанное количество осадков.
R24 - Количество осадков - Количество выпавших осадков за 24 часа, мм.
S - Снежный покров - Высота снежного покрова, см. При наведении курсора мыши на число - состояние снежного покрова и степень покрытия местности в баллах.